Showing default

GLOBAL-16, 49950

Orbit data source: Space-Track

GLOBAL-16, 49950 is a payload satellite owned by BlackSky Global (US) in LEO that was launched on Thu, 09 Dec 2021 UTC via an ELECTRON launch vehicle from the Rocket Lab Launch Complex (RLLC). Payload-class satellites include a variety of spacecraft equipped with specific instruments for various scientific and technological missions. These include communications satellites like Starlink; space stations such as the ISS; scientific satellites like the Hubble; Earth observation satellites from companies like Planet Labs, Umbra, and HawkEye 360; GPS; miniature CubeSats for education and research; and military/defense satellites.

Loading next visibility...
Identifier
49950, 2021-120B
Orbit
LEO
Country
Flag of USUS
Related business
Manufacturer
LeoStella
Mission
Operational Commercial Imaging
Bus & Motor
BSKY, Unknown motor
Mass
55 kg wet, ~50 kg dry
Launch date (UTC)
2021-12-09 (5 years ago)
Launch vehicle
ELECTRON
Launch site
Rocket Lab Launch Complex (RLLC)
Object type
Payload
Rocket body
Debris
Shape & HBR
Box, 1.0 m
Radar Cross Section
0.625 m², Medium (>0.1 m² and < 1m²)

Expand to show TLE details & history
Last TLE update: 2 days ago

TLE from 2 days ago
0 GLOBAL-16
1 49950U 21120B   26171.32329352  .00021042  00000-0  36510-3 0  9996
2 49950  41.9964  34.3943 0013809 268.3932  91.5330 15.50299060255338
Epoch: 2026-06-20T07:45Z
TLE epoch observation values (Epoch: 2026-06-20T07:45:32.560Z)
Latitude
-0°
Longitude
9.46907°
Altitude
415.777 km
Speed
7.663 km/s
True Right ascension
02h 17m 34s
True Declination
0° 00' 00"
Sunlit
Object was in daylight at epoch
Visualization orbit readout
Latitude
Unknown
Longitude
Unknown
Altitude
Unknown
Speed
Unknown
Apparent Right ascension
Unknown
Apparent Declination
Unknown
Sunlit
N/A
Visualization observer readout
Local Sidereal Time
00:26:59
Azimuth
Unknown
Elevation
Unknown
Doppler factor
Unknown
Orbital elements
Apogee altitude
427.371 km
Perigee altitude
408.602 km
Semi-major axis
6,796.123 km
Eccentricity
0.00138
Inclination
41.9964°
RAAN
34.3943°
Arg. of periapsis
268.3932°
True anomaly
91.69118°
Mean anomaly
91.533°
Eccentric anomaly
91.61209°
Mean motion
3.87393 °/min
Orbital period
92.93 mins
BSTAR
0.0003651
Loading maneuver chart data...
Computing Atmospheric mass density...
Loading historical data...
Loading historical data...
Loading historical data...
Loading historical data...
Loading historical data...
Loading historical data...
Loading historical data...

Documentation

Showing up to 5 results
|